Tracking 31011 objects as of 11-Jul-2025
HD Live streaming from Space Station
objects crossing your sky now

STARLINK-2139

Track STARLINK-2139 now!
10-day predictions
STARLINK-2139 is classified as:


NORAD ID: 48554
Int'l Code: 2021-041B
Perigee: 553.3 km
Apogee: 555.4 km
Inclination: 53.1 °
Period: 95.6 minutes
Semi major axis: 6925 km
RCS: Unknown
Launch date: May 15, 2021
Source: United States (US)
Launch site: AIR FORCE EASTERN TEST RANGE (AFETR)
Your satellite tracking list
Your tracking list is empty




NASA's NSSDC Master Catalog

Two Line Element Set (TLE):
1 48554U 21041B   25192.80996804 -.00000182  00000-0  66896-5 0  9999
2 48554  53.0554 133.2758 0001493  95.5781 264.5378 15.06393913229290
Source of the keplerian elements: AFSPC